sat.trackr.live / text

‹ back to catalog

ONEWEB-0620

NORAD 55161 · 2023-004X

PAYLOAD ACTIVE UNKNOWN

§ Identity

Operator
Country
UK
Launch date
2023-01-10
Launch site
AFETR
Launch vehicle
Mass (kg)
RCS (m²)

Purposes: comms

External: N2YO · Heavens-Above · Gunter

§ Orbital elements

Epoch: 2026-09-20T01:14:01.641696Z

Period
109.81 min
Inclination
87.8962°
Eccentricity
0.0001529
Mean motion
13.11414808 rev/d
Perigee alt
1,216.5 km
Apogee alt
1,218.9 km
Semi-major
7,595.8 km
B*
5.7261e-4
RAAN
2.2155°
Arg perigee
104.1003°
Mean anomaly
256.0295°
Rev number
17,826

§ Raw data

ONEWEB-06201 55161U 23004X   26263.05140789  .00000216  00000+0  57261-3 0  99922 55161  87.8962   2.2155 0001529 104.1003 256.0295 13.11414808178265

JSON: /api/v1/satellites/55161 · /tle

For live sub-satellite position, see the globe view (requires WebGL).

§ Visibility from observer

Set your observer location to see the next 7 days of passes ≥ 10°. The values pass through the URL so the page stays shareable.

No JS? Fill the form by hand. The geolocation button needs JavaScript.